Temperature
16 17 16 16 16 16 16 16 15 15 15 15 16 16 16 16 16 16 16 16 16 16 16 16 16 17 17 16 16 16 16 16 15 15 15 15 15 15 15 15 15 15 14
17 17 16 16 16 16 16 16 15 15 15 16 16 16 16 16 16 16 16 16 16 16 16 17 17 17 17 16 16 16 16 16 16 15 15 15 15 15 15 15 15 15 14
18 17 16 16 16 16 15 16 16 15 15 16 16 16 16 16 16 16 16 16 16 17 17 17 17 17 17 16 16 16 16 16 16 16 15 15 15 15 15 15 15 15 15
18 17 16 16 16 15 15 16 16 15 16 16 16 16 16 16 16 16 16 17 17 17 17 17 17 17 17 17 16 16 17 16 16 16 16 16 16 15 15 15 15 15 15
18 17 16 16 16 15 16 16 16 16 16 16 16 16 17 17 17 17 17 17 17 17 17 17 17 17 17 17 17 17 17 16 16 16 16 16 16 16 16 16 15 15 15
17 17 16 16 16 15 16 16 16 16 16 16 16 17 17 17 17 17 17 17 17 18 18 18 17 17 17 17 17 17 17 16 16 16 16 16 16 16 16 16 16 16 15
17 16 16 16 15 15 16 16 16 16 16 16 17 17 17 17 17 17 18 18 18 18 18 18 18 17 17 17 17 17 17 17 16 16 16 16 16 16 16 16 16 16 16
17 16 16 15 15 15 16 16 16 16 16 16 17 17 17 17 17 17 18 18 18 18 18 18 17 17 17 17 17 17 17 16 16 16 16 16 16 16 16 16 16 16 16
17 16 16 15 15 15 15 16 16 16 16 16 17 17 17 17 17 17 18 18 18 18 18 18 17 17 17 17 17 17 16 16 16 16 16 16 16 16 16 16 16 15 15
16 16 16 15 15 15 15 16 16 16 16 16 17 17 17 18 18 17 17 18 18 18 18 17 17 17 17 17 16 16 16 16 16 16 16 15 15 15 15 15 15 15 15
16 16 16 15 15 15 15 15 16 16 16 16 17 17 17 18 18 18 18 18 18 17 17 17 17 17 17 16 16 16 16 16 16 16 15 15 15 15 15 15 15 15 15
16 16 16 15 15 15 15 15 16 16 16 16 17 17 17 17 17 17 17 17 17 17 17 17 17 17 17 16 16 16 16 15 15 15 15 15 15 15 15 14 14 14 14
17 16 16 16 15 15 15 15 16 16 16 16 16 17 17 17 17 17 17 17 17 17 17 17 17 17 16 16 16 16 15 15 15 15 15 14 14 14 14 14 14 14 14
16 16 16 16 16 15 15 16 16 16 16 16 16 16 17 17 17 17 17 17 17 17 17 16 16 16 16 16 15 15 15 15 15 14 14 14 14 14 13 13 13 13 13
16 16 16 16 16 16 16 16 16 16 16 16 16 16 16 16 16 16 16 16 16 16 16 16 16 16 15 15 15 15 14 14 14 14 14 14 13 13 13 13 13 12 12
16 16 16 16 16 16 16 16 15 15 15 15 15 15 15 15 16 16 16 16 16 15 15 15 15 15 15 15 14 14 14 14 14 13 13 13 13 13 13 12 12 12 12
16 16 16 16 16 15 16 16 15 15 15 15 15 15 15 15 15 15 15 15 15 15 15 14 14 14 14 14 14 14 13 13 13 13 13 13 13 13 12 12 12 12 12
16 16 16 16 15 15 15 15 15 15 15 15 15 14 14 14 14 14 15 15 14 14 14 14 14 13 13 13 13 13 13 13 13 13 13 13 13 12 12 12 12 12 12
16 16 16 16 16 15 15 15 15 15 15 15 14 14 14 14 14 14 14 14 14 14 14 13 13 13 13 13 13 13 13 13 13 13 13 13 13 12 12 12 12 11 11
16 16 16 16 16 15 15 15 15 14 14 14 14 14 14 14 14 14 14 14 14 14 13 13 13 13 13 13 13 13 13 13 13 13 13 13 13 12 12 11 11 11 11
16 16 16 16 16 15 15 15 15 14 14 14 14 14 14 14 14 14 14 14 14 14 14 13 13 13 13 13 12 13 13 13 13 13 13 13 12 12 12 11 11 11 11
16 16 16 16 16 16 15 15 15 15 15 14 14 14 14 14 14 14 14 14 14 14 14 13 13 13 13 13 12 11 11 12 12 12 12 12 12 12 11 11 11 11 10
16 16 16 16 16 16 15 15 15 14 14 14 14 14 14 14 14 14 14 14 14 14 14 13 13 13 13 12 12 11 10 10 11 11 11 11 11 11 10 10 10 10 10
16 16 16 16 16 16 15 15 15 15 14 14 14 14 14 14 14 14 14 14 14 14 14 13 13 13 12 12 12 11 10 10 9 10 10 10 10 10 10 10 10 9 9
16 16 16 16 16 16 15 15 15 15 15 15 14 14 14 14 14 14 14 14 14 13 13 13 13 12 12 12 11 11 10 10 9 9 9 9 9 9 9 9 9 9 8
16 16 16 16 16 16 15 15 15 15 15 14 14 14 14 14 14 14 13 13 13 13 13 13 12 12 11 11 11 10 9 9 9 8 8 8 8 8 8 8 8 8 8
Wind_Speed
11 17 22 21 20 19 17 17 16 15 15 16 16 16 17 18 19 21 22 22 21 21 21 20 20 19 19 19 19 18 18 17 17 17 17 17 17 17 15 14 14 13 14
14 21 23 22 20 19 18 17 16 15 16 16 16 17 17 19 20 21 22 22 22 21 20 20 19 19 18 17 17 15 14 13 13 13 14 15 16 16 15 14 13 13 14
17 21 23 22 21 19 18 17 16 16 17 17 17 17 18 19 20 21 21 21 21 20 19 19 18 17 16 15 14 12 11 10 9 9 10 11 13 14 14 14 14 14 14
19 21 21 22 21 20 18 17 17 17 17 17 17 17 18 19 19 20 20 20 20 19 18 17 16 15 14 13 12 12 11 11 11 11 10 11 11 13 13 13 13 13 14
16 19 21 23 21 20 18 17 17 17 18 18 18 17 18 18 19 19 19 19 18 17 16 15 14 13 12 12 12 12 13 14 15 13 12 11 11 12 13 13 13 13 13
11 17 22 22 21 20 18 17 18 18 18 18 18 17 17 17 18 18 17 17 16 16 15 14 13 12 11 11 11 12 13 13 14 12 11 10 10 11 11 11 12 11 11
11 17 21 22 21 19 18 17 17 18 18 18 18 17 17 17 17 17 16 15 15 14 14 13 11 10 9 9 10 11 11 11 11 10 9 9 9 9 9 9 9 10 10
12 15 19 21 21 19 18 17 17 18 19 18 18 17 17 17 16 15 14 14 13 13 12 11 10 8 7 6 7 8 8 8 7 7 7 7 8 8 8 8 7 8 8
14 12 14 18 19 19 18 17 17 18 18 18 18 17 17 16 15 14 13 12 12 11 10 9 8 6 4 3 4 5 6 5 5 5 5 6 6 6 6 5 5 6 6
13 11 11 14 16 16 16 17 18 18 18 18 18 18 17 16 15 13 12 11 10 9 8 7 6 4 2 1 2 4 4 3 3 4 6 6 6 5 4 3 3 3 4
14 12 10 11 13 15 15 15 17 18 18 18 17 18 16 14 13 12 12 11 9 8 7 6 4 3 2 2 3 4 3 1 1 3 7 7 7 5 4 3 2 1 1
15 13 11 11 12 13 12 14 14 14 16 15 15 16 14 13 12 11 12 11 10 8 7 6 5 4 3 4 5 4 3 3 3 5 7 9 8 6 5 5 4 3 2
14 14 12 11 13 12 10 12 11 11 13 13 14 14 13 11 11 10 10 10 9 8 7 6 5 5 5 6 6 6 5 5 6 6 8 10 10 8 7 7 7 6 6
12 13 13 12 12 12 12 11 11 10 10 10 12 14 12 9 8 9 9 9 9 8 7 7 6 7 8 9 9 8 7 7 8 8 9 11 12 11 9 9 9 9 8
13 12 13 13 13 12 11 9 10 9 10 11 12 13 14 10 7 8 8 9 9 9 8 7 7 7 7 7 8 8 7 8 8 9 10 12 14 14 13 12 11 11 11
14 13 12 13 12 11 9 7 8 10 11 11 11 13 15 13 10 8 6 7 8 10 10 9 7 5 4 4 4 5 6 7 8 9 11 12 14 16 15 14 13 13 13
13 13 13 13 12 11 10 9 10 11 11 10 11 14 14 13 11 9 5 5 7 9 9 7 5 3 2 2 3 4 5 6 7 9 10 11 12 14 16 16 15 14 13
11 12 14 13 13 12 9 8 8 10 10 10 12 12 13 13 12 9 5 4 6 6 5 3 2 2 2 2 3 3 4 6 8 9 10 10 11 12 13 15 15 14 12
12 13 13 12 13 12 10 8 8 8 8 9 10 10 11 12 12 9 5 5 5 3 2 2 2 2 2 3 4 4 4 4 6 8 9 10 10 11 11 11 12 12 10
10 11 12 12 12 11 8 6 5 5 5 7 8 9 10 10 11 9 5 5 4 2 1 1 2 2 2 3 4 4 5 6 5 5 6 7 7 7 7 6 5 4 4
9 10 11 11 11 9 6 6 6 5 5 4 5 8 9 9 9 8 4 3 3 2 2 2 1 2 2 1 2 4 5 5 5 5 3 3 3 4 3 2 3 2 3
10 10 11 11 11 10 8 6 4 4 4 4 4 6 8 8 8 7 5 3 2 2 1 1 1 1 1 0 1 2 4 5 4 3 3 1 1 1 2 3 4 5 5
9 10 10 11 10 10 9 5 4 4 3 3 3 3 4 7 7 7 6 4 3 3 2 1 1 2 2 1 2 3 2 3 3 4 3 3 3 2 2 4 6 7 7
10 9 9 9 9 9 10 9 9 7 6 6 5 4 4 6 6 7 6 5 3 2 2 2 2 2 2 2 2 2 4 3 3 4 3 3 3 3 3 3 5 7 7
9 8 7 8 7 7 8 9 9 7 5 4 4 6 5 4 5 6 6 4 3 2 2 1 1 1 1 2 3 2 3 3 4 4 4 3 2 3 4 4 5 6 7
5 5 6 7 6 6 7 8 9 9 8 8 7 7 5 4 3 4 5 4 3 3 2 1 1 1 1 2 2 2 3 3 3 4 4 3 2 1 4 4 4 5 7
Wind_Direction
153 155 150 146 142 136 131 126 123 119 114 107 102 99 96 97 99 101 102 104 102 99 98 96 95 95 94 94 92 89 85 81 77 74 70 70 74 74 72 69 64 62 64
147 152 150 147 143 138 133 129 127 122 117 111 106 104 101 101 101 101 102 102 101 100 99 98 97 96 96 95 92 90 87 83 80 75 70 69 73 72 69 66 64 64 64
145 149 149 147 143 138 135 133 131 127 121 115 110 107 105 105 104 103 103 103 102 101 100 99 98 97 96 94 89 84 81 81 87 84 72 68 72 73 70 66 63 62 62
145 147 148 146 143 140 137 136 134 131 125 120 115 112 109 107 106 106 105 105 104 103 101 100 99 98 95 90 82 76 74 85 95 96 81 71 70 72 70 67 65 63 62
143 146 149 146 144 142 140 139 138 134 128 124 120 116 114 111 109 108 108 107 106 105 104 102 100 96 91 84 75 71 76 95 101 99 89 79 74 74 69 65 64 63 63
138 144 149 146 145 143 142 142 140 137 133 129 125 121 118 115 113 113 111 110 109 108 106 105 101 96 88 80 71 69 80 101 106 103 95 87 81 78 72 67 65 63 62
139 145 149 148 147 145 144 143 143 141 137 134 130 127 123 120 118 118 116 115 113 112 111 109 105 99 89 79 70 69 77 96 109 111 107 98 91 85 78 71 66 62 60
144 147 151 150 147 145 145 145 144 143 141 139 136 132 130 128 126 125 124 122 121 119 117 114 111 105 95 81 69 65 70 83 105 121 120 114 106 94 84 77 70 65 61
146 147 148 149 147 146 146 147 145 143 144 143 141 138 137 135 134 134 132 130 129 127 126 124 121 117 107 83 59 51 57 78 116 144 148 142 129 113 100 90 78 69 64
147 147 145 145 145 145 147 147 146 145 145 144 144 143 143 143 142 141 140 139 138 138 138 139 139 138 132 63 14 18 31 70 111 172 178 172 160 145 133 120 101 81 69
154 153 149 147 147 148 149 150 146 147 148 147 148 149 148 148 148 149 152 152 153 155 159 164 170 181 210 284 313 337 358 34 120 189 195 195 187 180 176 174 168 154 107
162 162 159 155 155 155 155 152 150 150 154 155 157 156 157 159 162 164 168 169 171 176 185 197 210 230 253 275 289 298 299 275 245 224 219 215 210 209 209 209 213 220 223
168 167 167 163 163 163 156 159 160 160 164 167 168 167 167 171 175 176 177 183 187 193 206 225 241 250 256 265 273 273 272 266 247 241 235 224 221 224 228 228 230 233 235
170 174 172 169 168 169 165 169 169 169 174 179 182 180 176 175 177 182 187 193 196 204 215 231 241 252 258 260 257 259 263 258 252 248 244 235 232 234 237 239 238 239 241
171 178 175 172 173 173 170 174 175 177 183 189 189 187 180 174 180 187 198 201 206 211 218 228 237 246 255 256 248 245 251 255 256 252 251 246 242 241 243 243 243 243 245
173 175 175 175 177 175 175 176 177 183 186 190 190 188 184 181 181 182 189 201 210 216 220 223 226 232 243 248 252 251 257 267 267 263 259 256 250 248 248 249 250 251 252
177 172 175 175 177 178 179 179 180 184 182 186 189 186 185 184 183 179 177 189 205 212 214 215 224 225 236 248 265 273 273 276 280 278 272 263 258 255 252 252 254 255 258
175 173 176 179 178 180 181 179 177 182 181 187 189 186 185 185 184 177 175 188 199 196 195 194 202 220 245 257 270 277 277 280 280 279 276 269 264 261 259 255 255 258 261
178 176 178 177 177 180 182 178 176 176 177 182 184 185 187 186 183 176 179 190 187 177 186 196 200 204 242 265 270 274 276 273 272 277 274 274 270 264 260 259 256 257 264
183 179 180 178 179 178 177 171 168 171 174 174 175 181 182 180 180 175 175 181 174 163 190 209 228 234 238 258 280 283 278 274 271 270 271 276 275 268 260 252 247 250 261
184 181 183 180 181 175 173 174 174 180 175 169 169 176 177 174 172 167 164 165 162 171 196 214 225 255 264 266 305 304 296 283 279 277 275 273 278 273 253 208 177 148 102
189 188 188 187 182 182 184 178 172 164 163 165 155 158 168 165 164 163 155 152 145 161 173 189 180 229 268 202 203 296 315 326 321 322 331 324 320 8 79 105 111 109 101
195 193 193 190 184 182 175 157 133 113 105 133 159 158 154 151 147 142 146 144 139 149 169 193 186 193 236 263 204 211 244 269 308 313 346 18 23 41 56 78 88 90 86
203 196 191 188 184 180 172 171 169 173 182 185 174 164 147 141 139 139 137 139 138 141 155 184 177 186 195 234 255 233 225 218 248 297 316 350 27 42 48 65 73 72 73
196 189 186 178 179 179 179 180 179 182 177 152 144 148 146 135 136 134 133 132 129 129 136 143 163 178 201 219 225 238 248 241 227 237 273 299 358 36 45 49 62 65 63
177 170 169 168 174 175 177 181 184 179 166 157 161 164 159 147 136 130 129 126 123 123 128 137 162 172 208 235 237 228 226 233 230 224 244 252 254 78 50 42 49 59 59
Height
1528 1532 1536 1538 1540 1541 1543 1543 1544 1545 1545 1545 1545 1546 1546 1547 1548 1549 1550 1551 1552 1553 1554 1555 1555 1556 1556 1556 1556 1555 1555 1555 1554 1554 1554 1554 1553 1553 1552 1551 1551 1550 1549
1526 1531 1536 1538 1540 1542 1543 1544 1545 1545 1546 1546 1547 1547 1548 1548 1549 1550 1552 1553 1554 1555 1556 1556 1557 1558 1558 1558 1558 1558 1557 1557 1557 1557 1556 1556 1556 1555 1554 1554 1553 1552 1551
1527 1531 1536 1539 1541 1542 1543 1544 1545 1546 1547 1548 1548 1549 1549 1550 1551 1552 1553 1554 1555 1557 1558 1558 1559 1559 1560 1560 1560 1560 1560 1560 1559 1559 1559 1558 1558 1557 1556 1556 1555 1554 1553
1528 1532 1536 1539 1541 1542 1544 1545 1546 1547 1548 1549 1550 1550 1551 1552 1553 1554 1555 1556 1557 1558 1559 1560 1561 1561 1562 1562 1562 1562 1562 1562 1562 1561 1561 1560 1560 1559 1559 1558 1557 1556 1555
1529 1533 1536 1539 1541 1543 1544 1545 1547 1548 1549 1550 1551 1552 1552 1553 1554 1555 1557 1558 1559 1560 1561 1562 1563 1563 1564 1564 1564 1564 1564 1564 1564 1563 1563 1563 1562 1561 1560 1560 1559 1558 1557
1530 1534 1537 1539 1541 1543 1544 1546 1547 1549 1550 1551 1552 1553 1554 1555 1556 1557 1558 1559 1561 1562 1563 1564 1564 1565 1565 1566 1566 1566 1566 1566 1566 1565 1565 1564 1564 1563 1562 1561 1560 1559 1558
1531 1534 1537 1540 1542 1543 1545 1546 1548 1550 1551 1552 1553 1555 1556 1557 1558 1559 1560 1561 1562 1563 1564 1565 1566 1567 1567 1567 1568 1568 1567 1567 1567 1567 1566 1566 1565 1565 1564 1563 1562 1561 1560
1532 1535 1538 1540 1542 1544 1545 1547 1549 1550 1552 1553 1554 1556 1557 1558 1560 1561 1562 1563 1564 1565 1566 1567 1568 1568 1569 1569 1569 1569 1569 1569 1568 1568 1568 1567 1566 1566 1565 1564 1563 1562 1560
1533 1536 1539 1541 1543 1544 1546 1547 1549 1551 1552 1554 1555 1557 1558 1560 1561 1562 1564 1565 1566 1567 1568 1568 1569 1569 1570 1570 1570 1570 1570 1569 1569 1569 1568 1568 1567 1566 1565 1564 1563 1562 1561
1534 1537 1539 1541 1543 1545 1546 1548 1550 1551 1553 1554 1556 1557 1559 1560 1562 1563 1565 1566 1567 1568 1568 1569 1570 1570 1570 1571 1570 1570 1570 1570 1569 1569 1569 1568 1567 1566 1566 1565 1564 1563 1561
1534 1536 1539 1541 1543 1545 1547 1548 1550 1551 1553 1555 1556 1558 1559 1560 1562 1564 1565 1566 1567 1568 1569 1569 1570 1570 1570 1571 1571 1570 1570 1570 1570 1569 1568 1568 1567 1566 1566 1565 1564 1562 1561
1531 1535 1538 1541 1543 1545 1546 1548 1549 1551 1553 1555 1556 1558 1559 1561 1562 1563 1565 1566 1567 1568 1569 1569 1570 1570 1570 1570 1570 1570 1570 1570 1569 1568 1568 1567 1567 1566 1565 1564 1563 1562 1561
1529 1533 1536 1539 1542 1544 1546 1547 1549 1551 1552 1554 1556 1557 1559 1560 1562 1563 1564 1565 1566 1567 1568 1568 1569 1569 1569 1570 1570 1569 1569 1569 1568 1567 1567 1566 1566 1565 1564 1563 1562 1561 1560
1527 1531 1534 1537 1541 1543 1545 1547 1549 1550 1552 1553 1555 1556 1558 1559 1561 1562 1563 1564 1565 1566 1567 1567 1568 1568 1568 1568 1568 1568 1568 1567 1567 1566 1566 1565 1564 1563 1563 1562 1560 1559 1558
1524 1529 1532 1535 1538 1541 1544 1546 1548 1549 1551 1553 1554 1555 1557 1558 1559 1560 1562 1563 1564 1565 1566 1566 1566 1567 1567 1567 1566 1566 1566 1566 1565 1564 1564 1563 1562 1561 1561 1560 1559 1558 1556
1522 1526 1530 1533 1536 1539 1542 1544 1546 1548 1550 1551 1553 1554 1555 1557 1558 1559 1561 1562 1563 1563 1564 1565 1565 1565 1565 1565 1564 1564 1564 1563 1563 1562 1561 1560 1559 1559 1558 1557 1556 1556 1554
1519 1523 1527 1530 1534 1537 1540 1542 1544 1546 1548 1550 1551 1553 1554 1556 1557 1558 1559 1560 1561 1562 1562 1563 1563 1563 1563 1563 1562 1562 1562 1561 1560 1559 1558 1557 1556 1555 1555 1554 1554 1553 1552
1517 1520 1524 1527 1531 1534 1537 1540 1542 1544 1546 1548 1550 1551 1553 1554 1555 1556 1557 1558 1559 1560 1560 1561 1561 1561 1560 1560 1560 1559 1559 1558 1557 1556 1555 1554 1552 1552 1551 1550 1550 1549 1549
1515 1518 1521 1524 1527 1531 1534 1537 1539 1542 1544 1546 1548 1549 1551 1552 1553 1555 1555 1556 1557 1557 1558 1558 1558 1558 1558 1557 1557 1556 1555 1554 1553 1551 1550 1549 1548 1547 1547 1546 1546 1546 1545
1513 1516 1519 1521 1525 1528 1531 1534 1536 1539 1541 1543 1545 1547 1549 1550 1551 1552 1553 1554 1555 1555 1555 1556 1556 1555 1555 1554 1553 1551 1551 1549 1548 1547 1546 1545 1544 1543 1543 1542 1542 1542 1542
1511 1513 1516 1518 1521 1524 1527 1529 1532 1535 1537 1540 1542 1544 1546 1548 1549 1550 1551 1551 1552 1552 1552 1553 1552 1552 1551 1550 1549 1547 1546 1545 1544 1542 1541 1541 1540 1540 1539 1539 1539 1539 1538
1508 1510 1513 1515 1518 1521 1523 1526 1529 1532 1535 1537 1540 1541 1543 1545 1546 1547 1548 1548 1549 1549 1549 1549 1549 1548 1547 1547 1545 1543 1541 1540 1539 1539 1538 1538 1538 1537 1536 1536 1535 1535 1535
1505 1507 1510 1512 1515 1518 1520 1523 1526 1529 1531 1534 1536 1538 1540 1541 1543 1544 1544 1545 1545 1545 1545 1545 1545 1544 1543 1543 1542 1542 1540 1537 1536 1536 1535 1535 1534 1534 1533 1532 1532 1531 1531
1502 1505 1507 1510 1512 1514 1517 1519 1522 1524 1526 1529 1532 1534 1536 1538 1539 1540 1541 1542 1542 1541 1541 1541 1540 1540 1539 1538 1537 1537 1537 1535 1535 1532 1532 1532 1531 1530 1529 1529 1528 1527 1527
1499 1502 1504 1507 1509 1511 1514 1516 1519 1521 1524 1527 1529 1531 1532 1534 1536 1537 1537 1538 1538 1537 1537 1537 1536 1535 1534 1533 1533 1532 1531 1530 1530 1529 1527 1527 1527 1526 1525 1525 1524 1523 1523
1496 1499 1501 1504 1506 1508 1510 1513 1515 1518 1520 1522 1525 1527 1528 1530 1532 1532 1533 1533 1533 1533 1532 1532 1531 1530 1529 1528 1527 1526 1526 1525 1525 1524 1523 1523 1522 1522 1521 1520 1520 1519 1519